Waarnemingen

Advertentie
Mijn weer
Grenoble/St.Geoirs, Frankrijk (7486): temperatuur & dauwpunt: 19.09.2018 11:00:00 - 25.09.2018 11:00:00 (CEST)Grenoble/St.Geoirs, Frankrijk (7486): temperatuur 5cm: 19.09.2018 11:00:00 - 25.09.2018 11:00:00 (CEST)Grenoble/St.Geoirs, Frankrijk (7486): temperatuur -20cm & temperatuur -100cm: 19.09.2018 11:00:00 - 25.09.2018 11:00:00 (CEST)Grenoble/St.Geoirs, Frankrijk (7486): windsnelheid & windstoten: 19.09.2018 11:00:00 - 25.09.2018 11:00:00 (CEST)Grenoble/St.Geoirs, Frankrijk (7486): windrichting: 19.09.2018 11:00:00 - 25.09.2018 11:00:00 (CEST)Grenoble/St.Geoirs, Frankrijk (7486): luchtdruk: 19.09.2018 11:00:00 - 25.09.2018 11:00:00 (CEST)Grenoble/St.Geoirs, Frankrijk (7486): zicht: 19.09.2018 11:00:00 - 25.09.2018 11:00:00 (CEST)Grenoble/St.Geoirs, Frankrijk (7486): Zonneschijnduur: 19.09.2018 11:00:00 - 25.09.2018 11:00:00 (CEST)Grenoble/St.Geoirs, Frankrijk (7486): neerslag: 19.09.2018 11:00:00 - 25.09.2018 11:00:00 (CEST)
Datum & Tijd tt [°C] td [°C] tt 5cm [°C] tt -20cm [°C] tt -100cm [°C] ff [km/u] ff [kn] fx [km/u] fx [kn] dd ppp [hPa] vv [km] sd [min] rr [mm]
25.09.2018 11:00:00 13,3 3,4 17,2 18,0 18,8 15 8 26 14 NO 1031,7 60 60 0,0
25.09.2018 10:00:00 11,7 3,5 12,3 18,1 18,8 8 4 17 9 NO 1031,6 49 55 0,0
25.09.2018 09:00:00 7,9 3,4 6,1 18,2 18,8 4 2 12 7 WZW 1031,8 19 42 0,0
25.09.2018 08:00:00 5,7 2,3 3,2 18,3 18,8 9 5 14 7 ZW 1031,8 47 8 0,0
25.09.2018 07:00:00 6,4 2,3 4,8 18,5 18,9 5 3 11 6 ZW 1031,5 57 0 0,0
25.09.2018 06:00:00 7,0 2,5 3,3 18,7 18,9 7 4 13 7 WNW 1031,4 60 0 0,0
25.09.2018 05:00:00 6,3 2,6 1,9 18,8 18,9 4 2 9 5 WZW 1031,5 60 0 0,0
25.09.2018 04:00:00 5,7 2,0 0,9 19,0 18,9 3 2 9 5 WNW 1031,1 60 0 0,0
25.09.2018 03:00:00 6,6 1,9 2,3 19,1 18,9 2 1 8 4 ONO 1031,1 60 0 0,0
25.09.2018 02:00:00 7,6 2,1 3,2 19,2 18,9 4 2 16 9 W 1031,0 60 0 0,0
25.09.2018 01:00:00 8,0 2,0 4,9 19,3 18,9 8 5 22 12 NNW 1030,8 60 0 0,0
25.09.2018 00:00:00 10,5 2,1 5,8 19,4 18,9 11 6 22 12 NW 1030,5 60 0 0,0
24.09.2018 23:00:00 10,1 2,4 7,6 19,5 18,9 9 5 21 11 NNW 1029,8 60 0 0,0
24.09.2018 22:00:00 11,6 2,6 9,6 19,5 18,9 14 7 31 17 N 1029,2 60 0 0,0
24.09.2018 21:00:00 12,2 3,2 8,7 19,5 18,9 10 5 22 12 N 1028,9 60 0 0,0
24.09.2018 20:00:00 12,9 3,8 10,0 19,5 18,9 11 6 34 19 N 1028,3 60 1 0,0
24.09.2018 19:00:00 15,6 4,0 15,9 19,5 18,9 10 6 42 23 N 1027,1 57 48 0,0
24.09.2018 18:00:00 16,9 4,9 18,4 19,5 18,9 29 16 50 27 NNW 1026,1 23 52 0,0
24.09.2018 17:00:00 17,1 6,0 17,4 19,5 18,9 29 16 50 27 NNW 1026,2 30 3 0,0
24.09.2018 16:00:00 16,2 6,3 17,4 19,5 18,9 30 16 50 27 NNW 1026,2 46 15 0,0
24.09.2018 15:00:00 17,3 7,6 18,3 19,5 18,9 32 17 49 27 NNW 1026,5 30 36 0,0
24.09.2018 14:00:00 14,7 7,0 16,8 19,6 18,9 27 14 45 24 NNW 1027,5 34 5 0,0
24.09.2018 13:00:00 13,3 7,1 15,2 19,7 18,9 24 13 46 25 NW 1027,9 54 0 0,0
24.09.2018 12:00:00 12,5 6,7 14,7 19,8 18,9 26 14 49 26 NNW 1028,0 33 8 0,0
24.09.2018 11:00:00 12,8 7,0 13,6 19,9 18,9 30 16 52 28 N 1027,6 29 44 0,0
24.09.2018 10:00:00 11,9 7,0 12,0 20,0 18,9 31 17 53 28 NNW 1027,7 31 30 0,0
24.09.2018 09:00:00 11,6 7,3 11,6 20,1 18,9 31 17 48 26 NNW 1026,9 13 55 0,0
24.09.2018 08:00:00 11,2 7,5 11,0 20,2 18,9 28 15 41 22 NNW 1026,7 38 8 0,0
24.09.2018 07:00:00 11,8 8,3 11,5 20,4 18,9 12 7 35 19 N 1026,5 47 0 0,0
24.09.2018 06:00:00 12,3 9,1 12,1 20,5 18,9 16 9 34 19 N 1026,1 53 0 0,0
24.09.2018 05:00:00 12,4 9,4 11,5 20,5 18,9 21 12 29 16 NNW 1025,7 60 0 0,0
24.09.2018 04:00:00 13,0 9,8 12,5 20,6 18,9 19 10 40 22 NW 1025,4 60 0 0,0
24.09.2018 03:00:00 12,8 9,6 12,5 20,7 18,9 18 10 34 18 NNW 1025,6 60 0 0,0
24.09.2018 02:00:00 13,7 10,3 12,5 20,7 18,9 15 8 35 19 NW 1024,8 60 0 0,2
24.09.2018 01:00:00 14,6 11,4 14,4 20,7 18,9 15 8 62 34 N 1023,0 36 0 0,0
24.09.2018 00:00:00 18,3 12,5 17,8 20,7 18,9 31 17 67 36 NW 1020,6 58 0 0,0
23.09.2018 23:00:00 20,3 15,1 17,5 20,6 18,9 3 1 10 5 O 1019,4 60 0 0,0
23.09.2018 22:00:00 21,6 15,2 18,6 20,6 18,9 3 2 17 9 W 1019,1 60 0 0,0
23.09.2018 21:00:00 21,9 16,0 18,6 20,4 18,9 7 4 52 28 N 1018,5 60 0 0,0
23.09.2018 20:00:00 24,7 13,6 22,2 20,2 18,9 8 4 12 6 WZW 1017,3 60 0 0,0
23.09.2018 19:00:00 28,2 13,3 28,0 20,0 18,9 5 3 14 8 ZZW 1016,2 60 24 0,0
23.09.2018 18:00:00 29,0 13,2 30,1 19,8 18,9 9 5 20 11 ZW 1016,0 59 50 0,0
23.09.2018 17:00:00 30,0 13,3 36,5 19,7 18,9 6 4 26 14 WNW 1016,3 38 60 0,0
23.09.2018 16:00:00 29,9 13,6 36,3 19,5 18,9 8 4 21 11 WNW 1016,2 60 60 0,0
23.09.2018 15:00:00 29,1 13,7 37,0 19,3 18,9 5 3 21 11 ZW 1017,2 56 60 0,0
23.09.2018 14:00:00 28,4 13,5 35,8 19,3 18,9 6 3 23 12 O 1018,1 57 60 0,0
23.09.2018 13:00:00 27,2 13,5 32,8 19,2 18,9 9 5 22 12 NNO 1019,0 60 60 0,0
23.09.2018 12:00:00 25,9 13,1 26,7 19,3 19,0 8 4 21 11 ONO 1019,7 60 55 0,0
23.09.2018 11:00:00 22,7 10,5 21,5 19,3 19,0 10 5 19 11 ONO 1021,0 35 3 0,0
23.09.2018 10:00:00 20,1 9,6 19,8 19,4 18,9 16 9 25 13 ONO 1021,3 60 0 0,0
23.09.2018 09:00:00 18,4 10,0 17,5 19,4 19,0 10 6 17 9 O 1021,4 60 0 0,0
23.09.2018 08:00:00 17,6 9,2 17,0 19,5 19,0 13 7 18 10 O 1021,7 32 0 0,0
23.09.2018 07:00:00 17,5 8,9 17,0 19,5 19,0 13 7 24 13 O 1021,4 60 0 0,0
23.09.2018 06:00:00 17,6 8,7 15,5 19,6 19,0 13 7 23 12 NO 1021,6 60 0 0,0
23.09.2018 05:00:00 17,3 8,2 15,2 19,7 19,0 11 6 19 11 O 1021,9 60 0 0,0
23.09.2018 04:00:00 16,6 9,0 15,0 19,7 19,0 4 2 9 5 OZO 1022,7 60 0 0,0
23.09.2018 03:00:00 16,9 9,8 15,9 19,8 19,0 2 1 9 5 NW 1023,0 20 0 0,0
23.09.2018 02:00:00 16,3 8,8 15,5 19,9 19,0 4 2 6 4 O 1023,6 60 0 0,0
23.09.2018 01:00:00 15,9 9,3 14,7 19,9 19,0 2 1 10 5 NW 1023,6 60 0 0,0
23.09.2018 00:00:00 16,1 8,3 14,7 20,0 19,0 7 4 13 7 O 1023,2 60 0 0,0
22.09.2018 23:00:00 15,5 8,0 13,9 20,0 19,0 13 7 15 8 O 1023,2 59 0 0,0
22.09.2018 22:00:00 14,6 7,6 12,2 20,0 19,0 11 6 15 8 O 1023,0 60 0 0,0
22.09.2018 21:00:00 15,1 7,6 11,3 19,9 19,0 10 5 12 7 OZO 1022,6 60 0 0,0
22.09.2018 20:00:00 17,9 6,4 13,0 19,9 19,0 6 3 9 5 NO 1021,6 49 0 0,0
22.09.2018 19:00:00 21,9 3,5 23,7 19,7 19,0 6 3 13 7 NNW 1020,9 60 51 0,0
22.09.2018 18:00:00 22,8 3,8 26,7 19,6 19,0 5 3 13 7 NO 1020,6 41 60 0,0
22.09.2018 17:00:00 22,8 4,3 29,4 19,5 19,0 7 4 19 10 NO 1020,8 60 60 0,0
22.09.2018 16:00:00 22,1 5,5 30,8 19,4 19,0 9 5 18 10 N 1021,3 50 60 0,0
22.09.2018 15:00:00 20,9 6,0 28,6 19,3 19,0 9 5 23 12 NNW 1021,7 37 60 0,0
22.09.2018 14:00:00 19,7 7,4 26,3 19,3 19,0 11 6 26 14 NNW 1022,5 35 60 0,0
22.09.2018 13:00:00 17,7 7,7 21,2 19,4 19,0 12 6 26 14 N 1023,6 33 55 0,0
22.09.2018 12:00:00 15,9 8,4 19,8 19,5 19,0 10 6 22 12 N 1024,4 47 18 0,0
22.09.2018 11:00:00 14,4 8,8 17,8 19,6 19,0 6 3 18 10 N 1024,5 51 44 0,0
22.09.2018 10:00:00 13,6 9,6 15,6 19,8 19,0 11 6 27 15 NNW 1024,8 37 49 0,0
22.09.2018 09:00:00 12,6 8,9 9,6 20,0 19,0 6 4 11 6 NO 1024,5 46 39 0,0
22.09.2018 08:00:00 10,4 8,3 6,1 20,1 19,0 6 4 11 6 W 1024,8 45 8 0,0
22.09.2018 07:00:00 10,9 8,1 6,7 20,2 19,0 4 2 27 15 WNW 1024,6 41 0 0,0
22.09.2018 06:00:00 11,0 8,7 8,0 20,4 19,0 7 4 21 12 N 1024,3 39 0 0,0
22.09.2018 05:00:00 10,3 8,2 6,2 20,5 19,0 4 2 13 7 NO 1025,0 52 0 0,0
22.09.2018 04:00:00 10,5 7,9 6,7 20,6 19,0 0 0 14 8 N 1024,8 59 0 0,0
22.09.2018 03:00:00 10,8 8,2 8,0 20,7 19,0 6 3 9 5 NW 1024,7 60 0 0,0
22.09.2018 02:00:00 12,7 8,4 11,2 20,8 19,0 5 3 15 8 N 1024,5 59 0 0,0
22.09.2018 01:00:00 13,1 8,8 12,1 20,9 19,0 8 4 14 8 WNW 1024,8 60 0 0,0
22.09.2018 00:00:00 13,4 8,2 12,4 21,0 19,0 3 2 10 6 NW 1024,1 60 0 0,0
21.09.2018 23:00:00 13,4 8,5 12,4 21,0 19,0 6 3 23 12 NO 1024,0 60 0 0,0
21.09.2018 22:00:00 13,8 9,2 12,7 21,0 19,0 12 6 29 15 NNO 1023,9 52 0 0,0
21.09.2018 21:00:00 15,1 11,9 13,5 21,0 19,0 11 6 38 21 ONO 1022,7 20 0 0,8
21.09.2018 20:00:00 17,3 11,8 16,8 20,9 19,0 10 5 50 27 O 1020,4 60 0 0,0
21.09.2018 19:00:00 22,2 11,3 20,8 20,8 19,0 29 15 45 25 NW 1017,5 59 0 0,0
21.09.2018 18:00:00 24,0 13,2 19,6 20,6 19,0 10 5 26 14 W 1015,8 53 0 0,8
21.09.2018 17:00:00 22,8 16,3 18,5 20,5 19,0 10 5 34 19 Z 1015,1 29 3 0,8
21.09.2018 16:00:00 29,6 12,1 31,3 20,3 19,0 22 12 36 19 ZW 1013,8 20 28 0,0
21.09.2018 15:00:00 30,0 10,5 31,2 20,2 19,0 20 11 36 19 ZW 1013,7 57 24 0,0
21.09.2018 14:00:00 30,1 11,6 31,0 20,2 19,0 23 12 35 19 Z 1013,9 25 45 0,0
21.09.2018 13:00:00 28,6 10,7 31,0 20,2 19,0 20 11 34 19 ZZW 1014,7 36 48 0,0
21.09.2018 12:00:00 26,4 14,5 28,9 20,2 19,0 5 3 13 7 N 1015,5 19 30 0,0
21.09.2018 11:00:00 24,0 14,1 25,9 20,3 19,0 7 4 17 9 O 1016,1 20 58 0,0
21.09.2018 10:00:00 21,1 14,0 19,9 20,4 19,0 10 6 17 9 NO 1016,4 19 34 0,0
21.09.2018 09:00:00 18,4 13,7 14,4 20,6 19,0 9 5 14 8 ONO 1016,6 16 53 0,0
21.09.2018 08:00:00 14,6 11,7 11,4 20,7 19,0 4 2 17 9 NW 1017,1 19 14 0,0
21.09.2018 07:00:00 13,8 11,5 11,0 20,8 19,0 11 6 14 8 ONO 1016,6 20 0 0,0
21.09.2018 06:00:00 14,3 10,9 10,5 20,9 19,0 5 3 10 5 ONO 1017,0 25 0 0,0
21.09.2018 05:00:00 15,1 11,7 10,8 21,0 19,0 4 2 11 6 OZO 1016,8 24 0 0,0
21.09.2018 04:00:00 15,3 11,7 12,3 21,1 19,0 4 2 19 10 NO 1016,9 26 0 0,0
21.09.2018 03:00:00 16,7 12,0 14,5 21,2 19,0 8 4 18 10 O 1017,0 25 0 0,0
21.09.2018 02:00:00 16,9 12,0 13,9 21,3 19,0 11 6 16 9 O 1016,9 30 0 0,0
21.09.2018 01:00:00 17,8 11,8 14,4 21,3 19,0 5 3 17 9 NO 1017,0 1,3 0 0,0
21.09.2018 00:00:00 17,0 11,9 13,0 21,4 19,0 10 5 16 9 ONO 1017,0 39 0 0,0
20.09.2018 23:00:00 15,9 11,9 12,9 21,4 19,0 11 6 14 8 ONO 1017,0 32 0 0,0
20.09.2018 22:00:00 16,5 12,1 14,6 21,3 19,0 13 7 15 8 O 1016,9 35 0 0,0
20.09.2018 21:00:00 19,0 13,0 15,3 21,2 19,0 10 5 12 6 O 1016,6 42 0 0,0
20.09.2018 20:00:00 22,7 12,3 16,2 21,0 19,0 6 4 11 6 NNO 1015,9 20 3 0,0
20.09.2018 19:00:00 27,8 12,2 28,7 20,8 19,0 8 4 15 8 N 1015,2 52 49 0,0
20.09.2018 18:00:00 29,1 11,6 33,7 20,6 19,0 7 4 20 11 NNO 1015,1 22 60 0,0
20.09.2018 17:00:00 29,6 11,6 36,9 20,5 19,0 9 5 19 11 NNW 1015,5 39 60 0,0
20.09.2018 16:00:00 29,8 11,8 38,5 20,3 19,0 10 5 23 12 N 1015,9 52 60 0,0
20.09.2018 15:00:00 29,6 12,5 36,8 20,1 18,9 13 7 30 16 N 1016,6 20 60 0,0
20.09.2018 14:00:00 29,2 12,6 36,4 20,1 19,0 11 6 27 14 NO 1017,4 18 60 0,0
20.09.2018 13:00:00 28,3 13,0 34,0 20,1 18,9 12 7 23 12 NNW 1017,9 48 60 0,0
20.09.2018 12:00:00 26,7 14,1 30,6 20,2 19,0 4 2 15 8 ONO 1018,8 19 60 0,0
20.09.2018 11:00:00 24,2 13,7 26,8 20,2 18,9 5 3 18 10 O 1019,8 33 60 0,0
20.09.2018 10:00:00 21,8 14,2 22,3 20,4 18,9 8 4 13 7 O 1020,3 17 60 0,0
20.09.2018 09:00:00 17,6 13,7 13,4 20,5 19,0 4 2 8 5 OZO 1021,1 18 60 0,0
20.09.2018 08:00:00 13,2 11,6 10,5 20,6 18,9 8 4 11 6 OZO 1021,5 17 16 0,0
20.09.2018 07:00:00 12,5 10,6 9,9 20,7 18,9 8 4 10 6 O 1021,4 16 0 0,0
20.09.2018 06:00:00 13,5 11,2 10,3 20,9 18,9 8 4 9 5 OZO 1021,3 23 0 0,0
20.09.2018 05:00:00 12,8 10,3 10,4 21,0 18,9 8 4 10 5 OZO 1021,5 22 0 0,0
20.09.2018 04:00:00 14,4 12,1 11,6 21,1 18,9 10 5 11 6 OZO 1021,1 20 0 0,0
20.09.2018 03:00:00 13,9 11,8 11,7 21,2 18,9 13 7 15 8 O 1021,1 28 0 0,0
20.09.2018 02:00:00 15,3 12,2 11,5 21,3 18,9 6 3 9 5 O 1021,1 27 0 0,0
20.09.2018 01:00:00 15,9 11,7 11,6 21,4 18,9 0 0 10 5 N 1021,0 34 0 0,0
20.09.2018 00:00:00 16,9 12,4 13,9 21,4 18,9 7 4 11 6 ONO 1020,7 41 0 0,0
19.09.2018 23:00:00 17,8 12,7 14,6 21,4 18,9 10 5 14 7 O 1020,5 42 0 0,0
19.09.2018 22:00:00 19,6 12,8 16,1 21,3 18,9 8 5 13 7 OZO 1020,1 42 0 0,0
19.09.2018 21:00:00 19,8 13,0 15,5 21,2 18,9 8 5 11 6 OZO 1019,7 42 0 0,0
19.09.2018 20:00:00 22,2 12,7 18,8 21,0 18,9 8 4 13 7 N 1019,0 55 1 0,0
19.09.2018 19:00:00 27,5 11,5 28,4 20,8 18,9 11 6 20 11 NNW 1018,1 19 47 0,0
19.09.2018 18:00:00 28,9 11,5 32,9 20,6 18,9 13 7 21 11 NNW 1017,6 18 60 0,0
19.09.2018 17:00:00 29,2 13,0 36,4 20,4 18,9 9 5 27 15 NNW 1017,6 41 60 0,0
19.09.2018 16:00:00 29,8 13,5 38,1 20,2 18,9 12 6 24 13 NW 1017,7 43 60 0,0
19.09.2018 15:00:00 29,6 13,8 36,5 20,1 18,9 8 5 19 11 ZZO 1018,1 48 60 0,0
19.09.2018 14:00:00 28,6 13,3 36,7 20,0 18,9 4 2 16 9 Z 1018,9 45 60 0,0
19.09.2018 13:00:00 27,0 14,1 34,4 20,0 18,9 5 3 19 10 WNW 1019,7 53 60 0,0
19.09.2018 12:00:00 26,6 14,7 31,0 20,1 18,9 6 3 15 8 N 1019,9 20 60 0,0
19.09.2018 11:00:00 24,8 14,9 26,5 20,2 18,9 8 4 22 12 ONO 1020,3 31 60 0,0

tt = temperatuur
td = dauwpunt
tt 5cm = temperatuur 5cm
tt -20cm = temperatuur -20cm
tt -100cm = temperatuur -100cm
ff = windsnelheid
fx = windstoten
dd = windrichting
ppp = luchtdruk
vv = zicht
sd = Zonneschijnduur
rr = neerslag

Weerstations in de omgeving